Nantucket, MA

11:54 PM EDT on May 22, 2017 (GMT -0400)
Nantucket Memorial

Weather History for KACK - January, 2014

Change the Weather History Date:

Wednesday, January 29, 2014

  Actual Average Record
Temperature  
Mean Temperature 20 °F -  
Max Temperature 24 °F 38 °F 53 °F (1950)
Min Temperature 17 °F 24 °F 11 °F (1977)
Degree Days  
Heating Degree Days 44    
Moisture  
Dew Point 13 °F    
Average Humidity 74    
Maximum Humidity 89    
Minimum Humidity 42    
Precipitation  
Precipitation 0.03 in - - ()
Sea Level Pressure  
Sea Level Pressure 30.10 in    
Wind  
Wind Speed 8 mph (NW)    
Max Wind Speed 16 mph    
Max Gust Speed 28 mph    
Visibility 5 miles    
Events Snow    
Averages and records for this station are not official NWS values.
T = Trace of Precipitation, MM = Missing Value Source: NWS Daily Summary

Daily Weather History Graph

Daily Weather History Graph

Search for Another Location

Airport or City:

Trip Planner

Search our weather history database for the weather conditions in past years. The results will help you decide how hot, cold, wet, or windy it might be!

Date:

Astronomy

Jan. 29, 2014 Rise Set
Actual Time 6:54 AM EST 4:53 PM EST
Civil Twilight 6:24 AM EST 5:22 PM EST
Nautical Twilight 5:51 AM EST 5:55 PM EST
Astronomical Twilight 5:19 AM EST 6:28 PM EST
Moon 5:28 AM EST (1/29) 3:48 PM EST (1/29)
Length of Visible Light 10h 57m
Length of Day
9h 58m
Waning Crescent, 2% of the Moon is Illuminated
Jan 29
Waning Crescent
Jan 30
New
Feb 6
First Quarter
Feb 14
Full
Feb 22
Last Quarter

Hourly Weather History & Observations

Time (EST) Temp. Windchill Dew Point Humidity Pressure Visibility Wind Dir Wind Speed Gust Speed Precip Events Conditions
12:53 AM 19.0 °F 13.9 °F 7.0 °F 59% 30.22 in 5.0 mi West 3.5 mph - 0.00 in Snow Light Snow
1:05 AM 17.6 °F 12.3 °F 8.6 °F 68% 30.21 in 2.5 mi NW 3.5 mph - 0.00 in Snow Light Snow
1:53 AM 17.1 °F 10.0 °F 12.0 °F 81% 30.18 in 2.5 mi NNW 4.6 mph - 0.00 in Snow Light Snow
2:03 AM 17.6 °F 10.7 °F 12.2 °F 79% 30.17 in 3.0 mi NNW 4.6 mph - 0.00 in Snow Light Snow
2:21 AM 17.6 °F 12.3 °F 12.2 °F 79% 30.17 in 3.0 mi NNW 3.5 mph - 0.00 in Snow Light Snow
2:53 AM 18.0 °F 11.1 °F 12.9 °F 81% 30.16 in 3.0 mi NNW 4.6 mph - 0.00 in Snow Light Snow
2:56 AM 17.6 °F 12.3 °F 12.2 °F 79% 30.17 in 2.5 mi NNW 3.5 mph - 0.00 in Snow Light Snow
3:20 AM 17.6 °F 9.3 °F 12.2 °F 79% 30.15 in 3.0 mi NNW 5.8 mph - 0.00 in Snow Light Snow
3:34 AM 17.6 °F 10.7 °F 14.0 °F 86% 30.15 in 1.8 mi NNW 4.6 mph - 0.00 in Snow Light Snow
3:53 AM 18.0 °F 12.7 °F 14.0 °F 84% 30.15 in 2.5 mi NNW 3.5 mph - 0.01 in Snow Light Snow
4:01 AM 19.4 °F 11.5 °F 14.0 °F 80% 30.14 in 5.0 mi NNW 5.8 mph - 0.00 in Snow Light Snow
4:37 AM 19.4 °F 9.5 °F 14.0 °F 80% 30.10 in 2.5 mi NNW 8.1 mph - 0.00 in Snow Light Snow
4:42 AM 19.4 °F 8.6 °F 15.8 °F 86% 30.10 in 3.0 mi North 9.2 mph - 0.00 in Snow Light Snow
4:53 AM 19.9 °F 9.3 °F 15.1 °F 81% 30.09 in 4.0 mi North 9.2 mph - 0.00 in Snow Light Snow
5:07 AM 19.4 °F 6.6 °F 15.8 °F 86% 30.09 in 2.0 mi North 12.7 mph - 0.00 in Snow Light Snow
5:23 AM 19.4 °F 7.9 °F 14.0 °F 80% 30.09 in 3.0 mi North 10.4 mph - 0.00 in Snow Light Snow
5:48 AM 19.4 °F 8.6 °F 14.0 °F 80% 30.10 in 2.0 mi North 9.2 mph - 0.00 in Snow Light Snow
5:49 AM 19.0 °F 9.0 °F 14.0 °F 81% 30.10 in 2.0 mi North 8.1 mph - 0.00 in Snow Light Snow
5:56 AM 19.4 °F 7.9 °F 14.0 °F 80% 30.08 in 1.2 mi North 10.4 mph - 0.00 in Snow Light Snow
6:10 AM 19.4 °F 8.6 °F 15.8 °F 86% 30.08 in 1.2 mi North 9.2 mph - 0.00 in Snow Light Snow
6:53 AM 19.9 °F 7.9 °F 15.1 °F 81% 30.06 in 1.0 mi North 11.5 mph - 0.01 in Snow Light Snow
7:53 AM 19.9 °F 7.3 °F 16.0 °F 85% 30.07 in 1.0 mi NNW 12.7 mph - 0.00 in Snow Light Snow
8:26 AM 19.4 °F 8.6 °F 15.8 °F 86% 30.08 in 0.8 mi NNW 9.2 mph - 0.00 in Snow Light Snow
8:53 AM 19.9 °F 6.7 °F 17.1 °F 89% 30.06 in 0.5 mi NNW 13.8 mph - 0.01 in Snow Snow
9:53 AM 21.0 °F 8.1 °F 16.0 °F 81% 30.06 in 1.8 mi NNW 13.8 mph - 0.00 in Snow Light Snow
10:53 AM 21.0 °F 7.6 °F 16.0 °F 81% 30.05 in 2.5 mi NW 15.0 mph - 0.00 in Snow Light Snow
11:29 AM 21.2 °F 8.3 °F 15.8 °F 80% 30.05 in 5.0 mi NW 13.8 mph - 0.00 in Snow Light Snow
11:53 AM 21.0 °F 8.1 °F 15.1 °F 78% 30.04 in 9.0 mi NW 13.8 mph - 0.00 in   Overcast
12:53 PM 23.0 °F 13.1 °F 15.1 °F 72% 30.01 in 10.0 mi NW 9.2 mph - N/A   Scattered Clouds
1:37 PM 21.2 °F 7.3 °F 14.0 °F 74% 30.01 in 10.0 mi WNW 16.1 mph - N/A   Mostly Cloudy
1:53 PM 21.9 °F 9.8 °F 12.9 °F 68% 30.01 in 10.0 mi WNW 12.7 mph - N/A   Mostly Cloudy
2:39 PM 23.0 °F 10.6 °F 14.0 °F 68% 30.01 in 10.0 mi West 13.8 mph - N/A   Scattered Clouds
2:53 PM 21.9 °F 9.2 °F 14.0 °F 72% 30.02 in 10.0 mi West 13.8 mph - N/A   Partly Cloudy
3:53 PM 23.0 °F 11.7 °F 10.9 °F 60% 30.03 in 10.0 mi West 11.5 mph - N/A   Clear
4:53 PM 21.9 °F 8.7 °F 8.1 °F 55% 30.04 in 10.0 mi West 15.0 mph - N/A   Clear
5:53 PM 23.0 °F 10.6 °F 10.9 °F 60% 30.07 in 10.0 mi West 13.8 mph - N/A   Clear
6:53 PM 23.0 °F 10.1 °F 10.9 °F 60% 30.11 in 10.0 mi West 15.0 mph - N/A   Clear
7:53 PM 23.0 °F 10.6 °F 10.9 °F 60% 30.13 in 10.0 mi West 13.8 mph - N/A   Clear
8:53 PM 24.1 °F 11.0 °F 12.0 °F 60% 30.14 in 10.0 mi West 16.1 mph 27.6 mph N/A   Clear
9:53 PM 23.0 °F 10.1 °F 3.9 °F 44% 30.18 in 10.0 mi WNW 15.0 mph 23.0 mph N/A   Clear
10:53 PM 21.9 °F 11.7 °F 1.9 °F 42% 30.20 in 10.0 mi WNW 9.2 mph - N/A   Clear
11:53 PM 21.0 °F 9.9 °F 1.9 °F 44% 30.24 in 10.0 mi NW 10.4 mph - N/A   Clear